TimeEST,TemperatureF,Dew PointF,Humidity,Sea Level PressureIn,VisibilityMPH,Wind Direction,Wind SpeedMPH,Gust SpeedMPH,PrecipitationIn,Events,Conditions,WindDirDegrees,DateUTC
12:53 AM,17.1,12.0,81,30.19,10.0,Calm,Calm,-,N/A,,Scattered Clouds,0,2013-01-06 05:53:00
1:53 AM,18.0,12.9,81,30.16,10.0,Calm,Calm,-,N/A,,Overcast,0,2013-01-06 06:53:00
2:53 AM,18.0,14.0,84,30.14,10.0,Calm,Calm,-,N/A,,Overcast,0,2013-01-06 07:53:00
3:53 AM,19.9,15.1,81,30.10,10.0,Calm,Calm,-,N/A,,Overcast,0,2013-01-06 08:53:00
4:22 AM,19.4,15.8,86,30.07,2.5,South,3.5,-,N/A,Snow,Light Snow,170,2013-01-06 09:22:00
4:31 AM,23.0,17.6,80,30.06,3.0,SSE,4.6,-,0.00,Snow,Light Snow,160,2013-01-06 09:31:00
4:53 AM,23.0,18.0,81,30.07,9.0,SSE,3.5,-,0.00,,Overcast,160,2013-01-06 09:53:00
5:02 AM,23.0,17.6,80,30.04,10.0,SSE,4.6,-,N/A,,Overcast,160,2013-01-06 10:02:00
5:10 AM,23.0,19.4,86,30.04,10.0,SSE,3.5,-,N/A,,Overcast,160,2013-01-06 10:10:00
5:53 AM,24.1,19.9,84,30.07,10.0,Calm,Calm,-,N/A,,Overcast,0,2013-01-06 10:53:00
6:05 AM,24.8,21.2,86,30.04,10.0,Calm,Calm,-,N/A,,Overcast,0,2013-01-06 11:05:00
6:53 AM,26.1,21.9,84,30.06,8.0,SSW,3.5,-,N/A,,Overcast,210,2013-01-06 11:53:00
7:53 AM,25.0,21.9,88,30.04,8.0,SSW,5.8,-,N/A,,Overcast,210,2013-01-06 12:53:00
8:00 AM,26.6,21.2,80,30.00,8.0,SSW,5.8,-,N/A,,Overcast,200,2013-01-06 13:00:00
8:53 AM,27.0,23.0,85,30.05,6.0,South,5.8,-,N/A,,Overcast,180,2013-01-06 13:53:00
9:09 AM,26.6,23.0,86,30.02,8.0,SSW,6.9,-,N/A,,Overcast,210,2013-01-06 14:09:00
9:53 AM,27.0,23.0,85,30.04,8.0,SE,5.8,-,N/A,,Overcast,140,2013-01-06 14:53:00
10:51 AM,26.6,21.2,80,29.99,8.0,South,5.8,-,N/A,,Overcast,180,2013-01-06 15:51:00
10:53 AM,27.0,23.0,85,30.03,8.0,South,5.8,-,N/A,,Overcast,180,2013-01-06 15:53:00
11:53 AM,30.0,24.1,79,29.99,9.0,SSW,9.2,-,N/A,,Overcast,200,2013-01-06 16:53:00
12:53 PM,30.9,24.1,76,29.97,8.0,SSE,6.9,-,N/A,,Overcast,160,2013-01-06 17:53:00
1:53 PM,32.0,25.0,75,29.94,8.0,SE,3.5,-,N/A,,Overcast,140,2013-01-06 18:53:00
2:53 PM,33.1,25.0,72,29.94,7.0,SSE,5.8,-,N/A,,Overcast,160,2013-01-06 19:53:00
3:53 PM,34.0,25.0,70,29.94,8.0,SSW,3.5,-,N/A,,Overcast,200,2013-01-06 20:53:00
4:53 PM,34.0,25.0,70,29.95,9.0,South,5.8,-,N/A,,Overcast,190,2013-01-06 21:53:00
5:53 PM,33.1,28.0,82,29.96,5.0,SSW,9.2,-,0.00,Snow,Light Snow,200,2013-01-06 22:53:00
6:53 PM,33.1,28.9,85,29.97,8.0,SSW,6.9,-,0.00,,Overcast,200,2013-01-06 23:53:00
7:53 PM,33.1,28.9,85,29.97,7.0,South,3.5,-,N/A,,Overcast,190,2013-01-07 00:53:00
8:53 PM,30.0,27.0,88,29.97,6.0,ESE,3.5,-,N/A,,Mostly Cloudy,110,2013-01-07 01:53:00
9:53 PM,30.9,28.9,92,29.98,6.0,Calm,Calm,-,N/A,,Overcast,0,2013-01-07 02:53:00
10:53 PM,30.9,27.0,85,29.98,8.0,South,6.9,-,N/A,,Clear,190,2013-01-07 03:53:00
11:53 PM,24.1,23.0,96,29.99,2.5,Calm,Calm,-,N/A,,Partly Cloudy,0,2013-01-07 04:53:00